TimeCST,TemperatureF,Dew PointF,Humidity,Sea Level PressureIn,VisibilityMPH,Wind Direction,Wind SpeedMPH,Gust SpeedMPH,PrecipitationIn,Events,Conditions,WindDirDegrees,DateUTC
12:15 AM,17.6,15.8,93,30.00,10.0,South,9.2,-,N/A,,Overcast,170,2013-02-22 06:15:00
12:55 AM,15.8,15.8,100,29.98,10.0,SSE,6.9,-,N/A,Snow,Light Snow,160,2013-02-22 06:55:00
1:15 AM,15.8,14.0,93,29.97,10.0,SSE,8.1,-,N/A,,Overcast,160,2013-02-22 07:15:00
1:35 AM,14.0,14.0,100,29.97,10.0,SSE,6.9,-,N/A,,Overcast,160,2013-02-22 07:35:00
1:55 AM,14.0,14.0,100,29.97,10.0,Calm,Calm,-,N/A,,Overcast,0,2013-02-22 07:55:00
2:15 AM,14.0,12.2,93,29.97,10.0,Calm,Calm,-,N/A,,Overcast,0,2013-02-22 08:15:00
2:55 AM,12.2,10.4,92,29.96,10.0,SSW,5.8,-,N/A,,Overcast,200,2013-02-22 08:55:00
3:15 AM,10.4,10.4,100,29.96,10.0,SSE,8.1,-,N/A,,Overcast,150,2013-02-22 09:15:00
3:35 AM,10.4,10.4,100,29.95,10.0,South,9.2,-,N/A,,Overcast,170,2013-02-22 09:35:00
3:55 AM,10.4,8.6,92,29.95,10.0,SSE,5.8,-,N/A,,Overcast,160,2013-02-22 09:55:00
4:15 AM,10.4,8.6,92,29.94,10.0,SE,5.8,-,N/A,,Overcast,130,2013-02-22 10:15:00
4:35 AM,10.4,8.6,92,29.93,10.0,South,8.1,-,N/A,,Overcast,170,2013-02-22 10:35:00
4:55 AM,10.4,8.6,92,29.93,10.0,South,4.6,-,N/A,,Overcast,170,2013-02-22 10:55:00
5:15 AM,10.4,8.6,92,29.93,10.0,East,3.5,-,N/A,,Overcast,100,2013-02-22 11:15:00
5:35 AM,10.4,10.4,100,29.93,10.0,SSE,9.2,-,N/A,,Overcast,150,2013-02-22 11:35:00
5:55 AM,10.4,10.4,100,29.94,10.0,SSE,8.1,-,N/A,,Overcast,160,2013-02-22 11:55:00
6:15 AM,12.2,10.4,92,29.94,10.0,SSW,3.5,-,N/A,,Overcast,200,2013-02-22 12:15:00
6:35 AM,14.0,12.2,93,29.93,10.0,SSE,8.1,-,N/A,Snow,Light Snow,160,2013-02-22 12:35:00
6:55 AM,14.0,12.2,93,29.94,10.0,SSE,8.1,-,N/A,Snow,Light Snow,160,2013-02-22 12:55:00
7:15 AM,12.2,10.4,92,29.93,10.0,South,6.9,-,N/A,,Overcast,170,2013-02-22 13:15:00
7:35 AM,12.2,10.4,92,29.93,10.0,SSE,6.9,-,N/A,Snow,Light Snow,160,2013-02-22 13:35:00
7:55 AM,12.2,10.4,92,29.92,10.0,SSE,5.8,-,N/A,Snow,Light Snow,150,2013-02-22 13:55:00
8:15 AM,12.2,10.4,92,29.92,-9999.0,SSE,4.6,-,N/A,Snow,Heavy Snow,160,2013-02-22 14:15:00
8:35 AM,10.4,10.4,100,29.92,10.0,SE,4.6,-,N/A,,Overcast,140,2013-02-22 14:35:00
8:55 AM,12.2,10.4,92,29.92,10.0,South,9.2,-,N/A,,Overcast,180,2013-02-22 14:55:00
9:15 AM,12.2,10.4,92,29.92,10.0,South,6.9,-,N/A,,Mostly Cloudy,190,2013-02-22 15:15:00
9:35 AM,10.4,10.4,100,29.91,10.0,South,6.9,-,N/A,,Mostly Cloudy,190,2013-02-22 15:35:00
10:15 AM,12.2,10.4,92,29.91,10.0,SSE,3.5,-,N/A,,Mostly Cloudy,150,2013-02-22 16:15:00
10:35 AM,14.0,14.0,100,29.90,-9999.0,SSE,4.6,-,N/A,,Unknown,150,2013-02-22 16:35:00
10:55 AM,15.8,14.0,93,29.90,-9999.0,SSE,5.8,-,N/A,,Unknown,160,2013-02-22 16:55:00
11:15 AM,17.6,15.8,93,29.89,-9999.0,SSE,8.1,-,N/A,,Overcast,160,2013-02-22 17:15:00
11:35 AM,17.6,15.8,93,29.88,-9999.0,SSE,5.8,-,N/A,,Overcast,160,2013-02-22 17:35:00
11:55 AM,17.6,15.8,93,29.89,-9999.0,South,8.1,-,N/A,,Overcast,180,2013-02-22 17:55:00
12:15 PM,19.4,15.8,86,29.88,10.0,South,9.2,-,N/A,,Overcast,170,2013-02-22 18:15:00
12:35 PM,19.4,15.8,86,29.88,10.0,South,11.5,-,N/A,,Mostly Cloudy,180,2013-02-22 18:35:00
12:55 PM,19.4,15.8,86,29.87,10.0,South,8.1,-,N/A,,Partly Cloudy,180,2013-02-22 18:55:00
1:15 PM,21.2,17.6,86,29.86,10.0,SSW,8.1,-,N/A,,Clear,200,2013-02-22 19:15:00
1:35 PM,21.2,17.6,86,29.86,10.0,South,9.2,-,N/A,,Clear,180,2013-02-22 19:35:00
1:55 PM,23.0,17.6,80,29.85,10.0,South,8.1,-,N/A,,Clear,170,2013-02-22 19:55:00
2:15 PM,23.0,17.6,80,29.84,-9999.0,SSE,4.6,-,N/A,,Mostly Cloudy,150,2013-02-22 20:15:00
2:35 PM,23.0,19.4,86,29.82,-9999.0,South,5.8,-,N/A,,Mostly Cloudy,170,2013-02-22 20:35:00
2:55 PM,23.0,19.4,86,29.81,-9999.0,SSE,8.1,-,N/A,,Unknown,160,2013-02-22 20:55:00
3:15 PM,23.0,19.4,86,29.81,-9999.0,South,8.1,-,N/A,,Unknown,180,2013-02-22 21:15:00
3:35 PM,23.0,19.4,86,29.81,10.0,South,8.1,-,N/A,,Clear,180,2013-02-22 21:35:00
3:55 PM,23.0,19.4,86,29.80,-9999.0,South,6.9,-,N/A,,Unknown,170,2013-02-22 21:55:00
4:15 PM,23.0,19.4,86,29.80,-9999.0,SSE,5.8,-,N/A,,Unknown,160,2013-02-22 22:15:00
4:35 PM,23.0,19.4,86,29.80,-9999.0,SE,6.9,-,N/A,,Unknown,140,2013-02-22 22:35:00
4:55 PM,21.2,17.6,86,29.80,-9999.0,SE,9.2,-,N/A,,Unknown,140,2013-02-22 22:55:00
5:15 PM,19.4,17.6,93,29.79,10.0,SE,9.2,-,N/A,,Clear,140,2013-02-22 23:15:00
5:35 PM,19.4,17.6,93,29.79,10.0,SE,9.2,-,N/A,,Clear,130,2013-02-22 23:35:00
5:55 PM,19.4,17.6,93,29.80,10.0,SE,4.6,-,N/A,,Clear,140,2013-02-22 23:55:00
6:15 PM,17.6,15.8,93,29.80,-9999.0,South,3.5,-,N/A,,Unknown,170,2013-02-23 00:15:00
6:35 PM,15.8,15.8,100,29.80,10.0,SSE,3.5,-,N/A,,Clear,150,2013-02-23 00:35:00
6:55 PM,17.6,15.8,93,29.80,10.0,SSE,4.6,-,N/A,,Clear,160,2013-02-23 00:55:00
7:15 PM,15.8,14.0,93,29.79,10.0,SSE,4.6,-,N/A,,Clear,150,2013-02-23 01:15:00
7:35 PM,14.0,14.0,100,29.79,10.0,ESE,4.6,-,N/A,,Clear,120,2013-02-23 01:35:00
7:55 PM,14.0,12.2,93,29.78,10.0,ESE,3.5,-,N/A,,Clear,110,2013-02-23 01:55:00
8:15 PM,14.0,14.0,100,29.78,10.0,SE,3.5,-,N/A,,Clear,130,2013-02-23 02:15:00
8:35 PM,14.0,14.0,100,29.77,10.0,SE,4.6,-,N/A,,Clear,130,2013-02-23 02:35:00
8:55 PM,14.0,12.2,93,29.77,10.0,SE,3.5,-,N/A,,Clear,130,2013-02-23 02:55:00
9:15 PM,14.0,12.2,93,29.76,10.0,SE,5.8,-,N/A,,Clear,140,2013-02-23 03:15:00
9:35 PM,14.0,12.2,93,29.76,10.0,SE,3.5,-,N/A,,Clear,130,2013-02-23 03:35:00
9:55 PM,14.0,14.0,100,29.75,10.0,SE,5.8,-,N/A,,Clear,130,2013-02-23 03:55:00
10:15 PM,14.0,14.0,100,29.75,10.0,SE,5.8,-,N/A,,Clear,140,2013-02-23 04:15:00
10:35 PM,14.0,14.0,100,29.75,10.0,SSE,4.6,-,N/A,,Clear,150,2013-02-23 04:35:00
10:55 PM,14.0,14.0,100,29.74,10.0,SE,4.6,-,N/A,,Clear,130,2013-02-23 04:55:00
11:15 PM,10.4,8.6,92,29.73,10.0,SE,3.5,-,N/A,,Clear,140,2013-02-23 05:15:00
11:35 PM,10.4,10.4,100,29.73,10.0,SE,5.8,-,N/A,,Clear,130,2013-02-23 05:35:00
11:55 PM,14.0,14.0,100,29.72,10.0,ESE,4.6,-,N/A,,Clear,120,2013-02-23 05:55:00